Regional Weather Roundup
Issued by NWS Jackson, KY

Home | Current Version | Previous Version | Graphics & Text | Print | Product List | Glossary On
Versions: 1 2 3 4 5 6 7 8 9 10 11 12 13 14 15 16 17 18 19 20 21 22 23 24 25 26 27 28 29 30 31 32 33 34 35 36 37 38 39 40 41 42 43 44 45 46 47 48 49 50
000
ASUS43 KJKL 200511
RWRJKL

EAST KENTUCKY HOURLY WEATHER ROUNDUP
NATIONAL WEATHER SERVICE JACKSON KY
100 AM EDT SUN APR 20 2014

NOTE: "FAIR" INDICATES FEW OR NO CLOUDS BELOW 12,000 FEET WITH
NO SIGNIFICANT WEATHER AND/OR OBSTRUCTIONS TO VISIBILITY.

* THESE REPORTS ARE NOT UNDER NWS QUALITY CONTROL AND MAY NOT
  REPORT WEATHER SUCH AS PRECIPITATION AND FOG.

KYZ079-080-083-085-087-088-110-112-115-119-120-200600
...EASTERN KENTUCKY...

CITY           SKY/WX    TMP DP  RH WIND       PRES   REMARKS
JACKSON        MOCLDY    59  30  33 VRB3      30.21S
LONDON         CLEAR     59  34  39 NE3       30.19S
SOMERSET*      CLEAR     55  36  47 NE5       30.20S
MONTICELLO*    CLEAR     50  38  63 CALM      30.20S
WILLIAMSBURG*  CLEAR     55  41  58 SE7       30.19S
MIDDLESBORO*   PTCLDY    48  43  82 CALM      30.20F
HARLAN APT*    CLOUDY    52  37  58 E3        30.20S
BLACK MTN*       N/A     50  32  50 S3          N/A
PIKEVILLE APT* CLEAR     57  36  44 NE8       30.21S
BIG SANDY*     MOCLDY    55  35  47 NE5       30.22R
MOREHEAD APT*  CLEAR     59  30  33 MISG      30.24S
$$

KYZ035-036-041-042-044-050-067-078-099-200600
...CENTRAL KENTUCKY...

CITY           SKY/WX    TMP DP  RH WIND       PRES   REMARKS
MT STERLING*   PTCLDY    52  37  58 NE3       30.23S
FLEMING/MASON* CLEAR     54  36  50 NE7       30.25R
DANVILLE*      CLEAR     50  36  57 CALM      30.22R
LEXINGTON      CLEAR     50  36  58 NE8       30.22R
FRANKFORT      CLEAR     56  35  45 NE7       30.21F
$$

KYZ091>093-OHZ055-061-077-WVZ005-015-034-035-042-200600
...SOUTHERN OHIO/WEST VIRGINIA...

CITY           SKY/WX    TMP DP  RH WIND       PRES   REMARKS
COVINGTON      PTCLDY    52  35  52 NE7       30.25S
COLUMBUS       PTCLDY    50  31  48 NE3       30.28R
DAYTON         PTCLDY    45  33  63 N5        30.28F
WILMINGTON     CLEAR     46  33  60 NE10      30.26S
HUNTINGTON     MOCLDY    56  31  38 NE5       30.22S
CHARLESTON     CLOUDY    54  37  52 E5        30.23S
PINEVILLE*     MOCLDY    48  42  80 MISG      30.30R
BECKLEY        MOCLDY    51  37  58 SE6       30.26S
BLUEFIELD      CLOUDY    53  37  54 SE5       30.27R
$$

VAZ002-007-008-TNZ017-027-036-066-071-200600
...SOUTHWEST VIRGINIA/EAST TENNESSEE...

CITY           SKY/WX    TMP DP  RH WIND       PRES   REMARKS
WISE*          CLOUDY    52  32  46 CALM      30.24S
ABINGDON*      CLOUDY    55  36  50 E7        30.23S
BRISTOL        CLOUDY    50  40  68 CALM      30.22S
OAK RIDGE      PTCLDY    50  45  83 CALM      30.19F
CROSSVILLE     CLEAR     48  40  73 CALM      30.19S
NASHVILLE      PTCLDY    56  40  55 CALM      30.18R
$$

...KEY TO REMARKS...
VSB - VISIBILITY IN MILES
WCI - WIND CHILL INDEX
HX  - HEAT INDEX

$$



USA.gov is the U.S. government's official web portal to all federal, state and local government web resources and services.